RH
72 76 75 77 77 54 55 56 72 51 54 79 62 73 45 46 46 46 45 43 37 31 31 32 35 37 48 38 40 46 50 54 80 57 51 50 53 43 45 77 64 66 69 80
71 69 71 73 74 68 60 53 49 54 62 84 64 48 50 44 45 43 46 44 46 40 35 46 43 44 51 44 44 56 49 61 77 62 58 54 61 50 48 44 67 77 77 78
63 65 73 70 68 67 56 60 82 70 57 46 42 48 48 52 53 48 47 48 45 44 45 42 48 50 57 48 49 56 57 50 55 73 49 47 61 55 54 56 92 71 60 42
58 64 75 73 66 58 58 61 62 54 74 57 48 44 43 49 57 54 49 51 51 45 44 45 47 42 64 58 66 58 58 65 60 61 58 51 50 49 47 66 61 67 38 39
60 64 76 76 69 56 54 71 64 52 47 43 49 50 47 44 51 50 54 58 40 44 49 43 38 35 42 46 66 60 57 75 59 68 54 54 56 49 47 44 41 48 53 54
58 67 81 82 74 65 57 56 52 59 53 48 45 43 40 43 48 46 42 45 45 46 46 47 45 44 39 38 59 67 67 77 74 78 49 58 67 46 45 46 43 41 49 37
57 64 81 86 79 80 74 65 60 63 57 51 45 41 41 42 45 53 45 47 47 51 41 43 47 47 44 43 43 42 54 64 72 88 68 79 44 30 27 35 37 35 36 35
60 62 78 92 85 82 84 77 66 67 72 53 48 48 50 41 41 51 46 44 52 46 46 56 55 52 43 48 64 65 56 63 72 83 72 56 39 38 37 38 35 26 25 26
63 59 74 93 92 88 90 88 69 67 79 62 42 47 47 57 54 52 47 52 51 53 62 59 66 68 39 63 84 69 66 67 79 68 84 80 34 39 32 35 41 25 31 36
65 63 74 83 90 90 96 90 84 75 83 60 49 59 59 48 57 65 48 56 64 59 68 73 72 66 34 44 55 93 80 81 93 86 85 71 41 41 38 52 35 27 30 38
74 85 93 96 93 91 98 95 90 81 80 74 56 49 58 61 63 71 60 67 70 74 79 78 71 66 48 45 48 71 81 89 89 77 81 89 45 46 47 43 39 39 42 43
99 98 98 98 100 98 98 97 90 92 90 86 76 71 64 60 57 62 60 67 60 65 76 75 72 69 59 52 58 42 60 54 64 66 68 46 43 39 37 38 44 44 48 48
93 99 97 98 99 98 97 99 97 95 97 89 88 75 65 71 68 59 76 66 56 65 69 89 93 98 74 80 66 53 48 40 54 51 39 38 40 37 35 39 45 47 47 48
92 96 95 91 90 90 98 100 98 95 95 97 71 61 64 66 66 72 63 63 61 68 74 90 96 99 74 84 81 76 56 53 53 55 47 44 40 38 41 45 44 46 44 46
73 76 78 78 81 85 92 95 92 97 91 97 85 61 51 54 68 69 73 72 71 82 93 98 98 98 82 87 89 81 58 60 63 63 48 49 49 46 43 48 47 47 52 52
82 77 72 65 59 56 62 94 99 99 95 96 95 61 72 76 75 76 75 74 79 86 92 92 88 82 78 92 89 56 52 49 49 57 48 50 46 45 44 49 52 53 54 52
73 74 78 77 70 57 87 93 100 98 96 97 99 94 85 78 80 84 85 77 84 86 95 99 92 97 88 98 88 57 52 50 49 47 51 56 51 59 54 54 48 48 49 50
68 65 57 54 60 64 68 64 53 56 82 93 100 94 79 80 90 95 88 96 95 95 96 97 99 95 97 98 71 56 52 54 54 51 55 57 55 52 48 44 47 54 55 53
69 61 55 66 81 81 85 81 68 71 96 96 88 93 89 84 89 91 94 95 99 89 99 99 99 99 97 84 73 61 57 59 58 58 60 54 59 59 56 55 54 53 54 52
68 69 93 84 87 83 91 78 92 95 92 97 85 75 90 82 87 91 91 98 96 98 86 90 99 80 60 54 63 59 63 61 64 75 75 71 77 72 69 68 64 61 60 58
91 82 81 89 76 84 90 94 89 90 98 88 82 70 77 76 88 86 86 95 89 89 88 94 91 93 66 72 74 69 66 63 64 65 68 68 74 78 78 75 67 59 56 60
88 83 78 79 86 94 94 96 88 91 85 87 86 95 78 84 82 89 90 92 92 88 82 96 96 65 84 84 86 80 79 73 72 66 69 62 58 57 58 60 60 61 58 59
81 84 96 93 94 86 96 95 92 93 91 77 95 87 97 97 96 96 96 97 88 85 92 84 78 83 86 90 92 76 66 65 62 55 52 53 54 52 56 64 61 61 63 66
93 89 99 93 95 93 86 84 88 92 92 76 89 97 98 96 99 98 98 93 98 97 96 93 92 88 86 85 87 85 81 68 54 54 58 51 54 53 47 49 56 61 65 60
92 94 97 94 81 89 94 98 93 90 85 85 89 94 87 95 97 93 89 94 96 85 82 94 99 97 98 100 99 91 75 63 57 50 49 50 51 53 54 50 51 59 62 61
96 96 96 91 94 93 96 96 96 82 82 84 91 91 94 94 91 88 90 88 84 83 93 93 86 94 97 98 87 65 70 66 47 42 48 53 54 53 51 51 52 56 62 65
92 96 91 90 93 93 90 86 84 65 91 96 95 99 90 90 93 95 83 85 84 72 59 56 42 43 39 37 40 40 38 40 42 43 45 49 51 52 55 61 56 58 62 66
Wind_Speed
24 27 29 30 33 23 3 4 2 4 2 2 3 3 3 3 2 1 1 3 5 4 0 2 3 2 4 3 1 1 3 2 3 2 4 5 4 3 6 3 3 4 1 6
24 25 27 28 29 30 10 2 1 2 1 2 3 3 3 3 1 1 2 2 3 2 2 1 2 3 1 2 2 2 2 2 1 1 2 1 3 4 5 5 3 5 2 5
23 23 25 26 27 27 6 3 1 2 1 3 2 4 4 4 1 1 2 3 3 2 2 1 1 3 1 2 1 2 3 3 4 4 2 2 4 6 8 7 3 4 10 11
22 21 22 26 25 20 6 3 2 0 2 4 5 4 3 6 5 2 2 3 5 4 2 2 2 2 3 3 3 2 2 3 1 5 7 7 8 10 10 13 15 7 1 12
21 19 21 23 26 16 5 3 3 2 2 2 1 2 4 3 4 6 6 3 3 4 4 5 4 1 4 4 5 3 3 3 2 4 11 11 10 14 14 16 18 17 20 25
21 18 18 20 23 13 5 3 1 1 1 2 2 2 4 2 6 1 1 4 2 6 1 4 5 5 5 2 7 7 5 2 1 4 4 7 10 10 14 10 9 11 14 18
20 17 16 15 16 16 8 4 3 2 1 2 1 3 2 1 3 3 3 4 3 2 2 4 4 6 7 7 6 4 3 4 2 4 5 3 5 4 3 2 9 9 13 10
16 15 13 13 12 10 7 7 6 3 4 1 4 4 3 1 3 2 5 1 6 7 3 2 3 3 1 1 5 5 5 1 2 2 3 9 0 2 3 1 5 3 1 2
15 13 10 10 11 9 4 4 4 3 3 3 4 2 2 2 4 5 4 3 6 3 3 2 4 5 5 4 3 1 2 1 1 2 2 5 2 4 3 1 0 5 6 8
14 13 9 8 9 8 4 4 2 1 2 2 3 4 3 1 0 2 3 4 2 2 2 2 3 4 1 3 5 5 4 3 8 7 4 7 1 5 3 1 1 2 4 4
12 12 11 10 8 7 3 4 6 2 2 3 3 2 4 3 1 1 2 2 1 2 2 2 4 3 3 2 2 6 6 6 4 4 4 9 4 4 3 3 3 5 7 6
8 8 8 9 9 7 6 5 8 5 3 3 8 14 14 12 9 1 3 1 2 2 1 2 3 3 3 2 3 1 3 5 3 7 5 3 6 5 5 5 6 2 3 6
10 10 8 8 8 7 7 7 5 2 1 5 2 4 7 10 15 13 2 2 2 2 3 2 1 4 1 3 5 4 5 5 4 1 4 6 7 8 8 7 6 7 6 8
7 7 6 7 7 5 7 8 9 7 1 3 3 1 2 5 8 12 16 8 3 2 2 2 3 3 4 3 3 2 3 2 4 6 9 10 9 5 11 13 13 13 11 10
5 5 5 5 6 5 6 5 4 5 2 3 3 16 19 13 10 8 9 10 4 3 2 2 3 2 2 3 3 11 9 17 11 11 10 11 13 8 11 12 11 10 11 12
3 3 3 4 4 4 3 2 4 9 6 2 3 5 2 3 1 4 5 4 2 3 3 3 3 5 2 4 4 5 10 13 13 13 11 10 11 10 6 8 10 9 9 8
5 6 6 5 4 3 2 2 2 3 7 1 3 3 2 3 2 2 1 4 2 2 2 3 3 3 4 3 13 7 11 15 15 12 6 5 6 5 10 9 8 12 13 13
4 5 6 6 7 6 4 7 8 3 2 2 3 3 2 4 2 2 1 2 2 3 2 1 3 3 4 7 3 9 8 2 4 5 6 4 6 7 6 8 7 6 6 6
3 5 4 1 2 3 1 1 2 6 3 2 3 3 4 2 2 0 1 1 3 2 3 3 4 3 7 6 7 4 4 3 4 6 7 3 4 6 6 5 6 5 6 5
3 3 3 2 3 4 3 1 2 1 2 3 4 3 3 3 2 3 1 1 2 2 4 4 4 7 11 8 8 6 6 4 3 5 4 3 5 6 6 6 6 6 7 8
2 3 0 1 2 2 3 2 2 3 3 3 3 3 4 2 3 3 4 3 2 3 4 6 3 3 3 6 7 6 5 3 5 5 6 6 6 6 6 8 9 11 14 11
2 2 1 1 0 2 0 2 1 2 3 1 2 1 1 2 2 3 2 3 2 5 3 2 3 4 6 7 6 4 2 5 6 8 7 11 10 11 9 10 12 16 21 22
3 3 1 1 1 3 5 4 3 2 2 1 1 2 1 1 1 3 2 5 5 1 3 3 4 3 5 6 5 4 9 14 15 13 16 15 15 19 16 13 20 22 23 24
2 2 1 4 3 4 4 3 3 1 3 2 1 1 1 1 3 3 4 4 2 3 3 4 2 2 5 4 3 4 3 8 11 13 19 18 18 17 21 23 23 21 18 22
2 2 4 5 4 1 2 2 2 0 1 1 0 2 1 2 2 3 2 3 4 4 4 2 1 3 4 2 6 11 11 11 10 16 16 19 19 20 23 23 24 24 24 23
1 2 3 2 1 2 2 2 2 2 2 1 1 1 2 4 4 1 6 2 5 3 1 2 3 5 8 10 12 11 14 16 15 17 18 21 21 20 23 26 26 29 28 23
4 4 4 3 1 2 2 4 4 8 3 2 2 4 10 2 2 3 3 3 3 5 8 8 13 13 12 11 10 14 17 15 16 18 20 22 25 26 22 15 28 26 26 26
Wind_Direction
354 355 358 0 1 4 329 300 5 337 188 39 62 43 30 332 80 359 13 305 344 353 15 149 138 117 57 89 206 17 57 323 181 177 58 22 337 255 187 146 225 238 113 273
345 349 354 357 1 2 322 331 77 252 163 42 85 154 100 2 106 327 334 360 335 3 337 323 60 94 17 117 239 10 143 248 313 75 66 140 239 216 260 294 62 236 188 260
338 343 348 355 359 359 341 302 23 352 175 300 90 154 142 138 105 343 344 346 313 288 225 120 83 151 118 106 356 354 336 294 222 195 111 151 206 212 206 207 169 231 227 265
339 339 345 351 358 2 7 4 26 252 6 31 356 303 178 144 164 222 198 203 269 288 256 206 221 123 135 194 154 245 274 266 276 287 289 278 247 241 234 214 228 233 257 278
338 338 343 349 357 7 53 10 341 222 139 165 268 90 310 231 136 177 174 205 93 230 272 32 18 162 215 216 147 233 189 279 342 276 251 246 254 247 243 244 251 253 255 270
337 336 340 349 359 11 48 20 304 308 231 173 189 116 85 2 337 227 235 183 192 200 253 8 338 314 300 277 164 206 168 230 349 266 17 332 284 258 231 217 228 232 245 255
334 332 334 343 359 14 350 5 301 288 276 282 299 143 115 242 261 326 358 280 246 134 199 249 236 253 257 252 238 249 198 197 198 272 307 253 253 261 201 255 278 233 243 267
327 325 326 325 342 6 27 355 342 337 290 39 227 187 215 158 174 241 295 305 16 338 286 254 236 178 253 275 55 347 303 246 268 237 261 290 227 48 83 65 302 345 186 128
315 316 314 309 320 342 9 351 11 317 335 10 19 228 171 235 205 141 160 74 2 325 281 265 231 220 202 183 151 334 291 81 199 198 232 259 64 155 130 46 139 347 82 47
300 297 284 274 288 311 338 313 339 272 259 48 337 302 327 88 57 156 145 153 151 25 268 249 254 260 82 224 186 158 156 210 216 223 248 278 322 142 119 184 186 29 354 327
286 283 276 267 265 283 286 267 293 187 274 284 204 229 298 312 283 262 137 95 135 144 234 248 252 249 201 343 149 167 171 163 188 196 213 256 129 93 194 205 272 295 298 301
273 277 279 280 268 258 258 265 254 231 226 274 286 275 258 255 277 250 214 105 125 201 183 286 342 331 315 253 237 358 218 202 194 195 217 153 185 223 246 269 259 333 348 310
241 249 260 268 259 248 241 236 266 201 245 273 213 240 264 242 244 244 206 237 144 166 135 151 2 254 338 261 249 243 215 233 211 20 262 287 336 323 318 357 346 334 319 311
252 256 259 253 260 263 249 241 237 226 336 260 254 132 341 292 252 231 230 285 92 58 127 175 196 206 204 245 288 240 272 5 232 255 269 289 282 309 339 334 323 315 310 311
230 251 257 261 261 253 253 237 235 240 270 292 294 311 293 252 221 254 246 230 218 165 172 200 212 205 256 200 225 250 243 256 253 262 285 288 295 310 316 309 316 334 336 320
271 272 279 288 291 284 265 237 198 212 210 303 302 318 163 75 116 188 215 243 231 182 188 196 235 168 221 267 249 214 218 238 253 269 279 283 297 296 324 337 326 335 331 326
248 255 256 258 264 262 273 331 77 31 183 227 282 264 102 102 80 358 344 163 197 198 186 221 194 182 202 258 257 271 291 286 287 296 334 327 351 319 326 318 342 334 324 327
273 273 265 258 259 262 256 249 260 251 275 271 272 278 256 162 173 218 227 182 165 203 202 195 204 180 192 246 278 241 245 15 334 336 8 296 293 333 331 325 325 323 311 311
270 284 279 284 208 230 222 213 182 185 218 247 232 234 262 116 65 29 222 349 228 192 213 186 183 190 223 225 220 220 152 182 299 321 296 292 333 302 310 324 318 301 293 296
283 179 200 201 182 184 178 171 150 144 231 235 246 250 271 147 152 203 236 196 254 257 214 149 224 245 256 245 213 177 153 179 205 262 273 281 272 282 298 298 298 296 299 306
186 207 138 74 175 196 217 218 172 158 244 217 239 219 246 241 193 224 206 199 225 249 222 184 229 256 209 93 89 96 120 187 248 258 270 279 282 290 283 285 279 284 286 281
142 114 72 13 245 23 193 214 234 218 244 103 307 17 306 317 307 222 255 216 207 245 157 203 258 243 147 127 126 101 20 325 320 314 298 299 286 277 274 276 278 282 287 293
96 78 64 81 267 191 165 208 255 234 175 176 1 279 287 296 245 246 256 225 232 40 207 229 225 151 122 112 115 79 10 356 333 321 314 302 287 289 283 275 279 279 278 279
124 133 198 187 215 234 206 190 179 120 104 190 207 259 250 249 251 238 261 237 296 246 230 227 359 115 96 149 113 78 285 277 283 280 285 282 279 277 283 283 281 278 269 276
168 124 224 221 236 306 54 37 38 28 314 140 174 297 225 277 253 227 286 321 247 222 235 78 93 78 134 237 276 291 280 266 269 275 283 285 287 286 286 285 287 283 279 282
127 239 251 239 20 254 155 150 190 252 195 109 64 275 342 259 220 214 226 222 223 259 87 214 182 205 210 220 240 260 249 257 268 272 265 270 273 277 283 287 287 284 282 281
202 239 226 262 339 211 202 170 200 199 144 208 163 186 220 319 282 259 233 219 258 296 301 286 284 283 283 281 279 275 273 269 263 265 266 268 272 273 274 270 273 278 282 281